Powrót do katalogu

SL-3 DEB

AktywnyPO
NORAD 13720·DEBRIS·🇷🇺 Russia

Wystrzelony Dec 14, 1982 z Plesetsk Cosmodrome

Loading…

Następne Przeloty (najbliższe 24 godziny)

TLE

ŚwieżeSource: Space-Track

Epoka: Sep 14, 2026, 06:11 UTC

1 13720U 82116C   26257.25816931  .00000135  00000-0  60722-4 0  9998
2 13720  81.2457 258.2301 0056362  62.3526 311.4447 14.16029929258999

Śledź SL-3 DEB w czasie rzeczywistym z AllMySat

Download on the App Store